Location: Dalton
(34.7700°N, 84.9700°W)
Time: 22:19:23
(UTC-04:00)

Vanguard 1 - Visible Passes

Search period start: 23 October 2017 00:00
Search period end: 02 November 2017 00:00
Orbit: 650 x 3834 km, 34.3° (Epoch: 23 October)

Date Brightness Start Highest point End Pass type
(mag) Time Alt. Az. Time Alt. Az. Time Alt. Az.
23 Oct 13.0 02:29:55 44° E 02:29:55 44° E 02:43:12 10° E visible
23 Oct 12.4 04:42:38 63° W 04:47:39 85° SSW 05:11:43 10° ESE visible
23 Oct 13.1 06:55:21 14° WNW 07:14:39 59° SSW 07:36:10 10° SE visible
24 Oct 12.8 02:49:50 52° E 02:49:50 52° E 03:05:15 10° E visible
24 Oct 12.4 05:02:33 54° W 05:09:25 80° SSW 05:33:20 10° ESE visible
24 Oct 13.2 07:15:41 10° WNW 07:35:57 51° SW 07:56:38 10° SSE visible
25 Oct 13.9 00:57:02 12° ENE 00:57:02 12° ENE 00:58:03 10° ENE visible
25 Oct 12.6 03:09:47 60° E 03:09:47 60° E 03:27:18 10° E visible
25 Oct 12.5 05:22:30 45° W 05:31:05 74° SSW 05:54:44 10° ESE visible
26 Oct 13.8 01:17:02 16° E 01:17:02 16° E 01:20:02 10° E visible
26 Oct 12.5 03:29:46 69° ESE 03:29:46 69° ESE 03:49:17 10° E visible
26 Oct 12.7 05:42:30 38° W 05:52:40 66° SSW 06:15:52 10° SE visible
27 Oct 13.7 01:37:04 21° E 01:37:04 21° E 01:42:04 10° E visible
27 Oct 12.4 03:49:48 77° SE 03:49:48 77° SE 04:11:10 10° ESE visible
27 Oct 12.8 06:02:32 31° W 06:14:08 58° SSW 06:36:43 10° SE visible
28 Oct 13.5 01:57:07 26° E 01:57:07 26° E 02:04:07 10° E visible
28 Oct 12.3 04:09:52 78° S 04:09:52 78° S 04:32:53 10° ESE visible
28 Oct 13.0 06:22:36 24° W 06:35:29 49° SW 06:57:11 10° SSE visible
29 Oct 13.3 02:17:13 31° E 02:17:13 31° E 02:26:11 10° E visible
29 Oct 12.3 04:29:58 71° SW 04:31:03 72° SSW 04:54:21 10° ESE visible
29 Oct 13.1 06:42:42 19° W 06:56:46 41° SW 07:17:15 10° SSE visible
30 Oct 13.2 02:37:21 36° E 02:37:21 36° E 02:48:12 10° E visible
30 Oct 12.3 04:50:06 61° SW 04:52:35 64° SSW 05:15:33 10° SE visible
30 Oct 13.3 07:02:51 13° W 07:17:58 32° SW 07:36:48 10° SSE visible
31 Oct 13.0 02:57:31 42° ESE 02:57:31 42° ESE 03:10:07 10° ESE visible
31 Oct 12.5 05:10:16 51° WSW 05:14:02 55° SSW 05:36:25 10° SE visible
31 Oct 13.5 07:24:16 10° W 07:39:09 25° SW 07:55:36 10° S visible
01 Nov 12.8 03:17:41 47° SE 03:17:41 47° SE 03:31:52 10° ESE visible
01 Nov 12.6 05:30:26 41° WSW 05:35:27 47° SSW 05:56:54 10° SSE visible
01 Nov 11.6 20:23:27 10° S 20:25:34 15° SSE 20:25:34 15° SSE visible
